Location: Street
(51.1247°N, 2.7429°W)
Time: 12:50:03
(UTC+01:00)

AO-109 - Visible Passes

Search period start: 28 March 2023 00:00
Search period end: 07 April 2023 00:00
Orbit: 442 x 483 km, 60.7° (Epoch: 27 March)

Date Brightness Start Highest point End Pass type
(mag) Time Alt. Az. Time Alt. Az. Time Alt. Az.
28 Mar ? 21:25:18 10° NW 21:28:39 40° NNE 21:29:26 35° ENE visible
28 Mar ? 23:02:19 10° WNW 23:03:18 17° WNW 23:03:18 17° WNW visible
29 Mar ? 20:52:20 10° NW 20:55:35 34° NNE 20:57:34 19° E visible
29 Mar ? 22:29:14 10° WNW 22:31:26 31° W 22:31:26 31° W visible
30 Mar ? 20:19:20 10° NW 20:22:27 29° NNE 20:25:34 10° E visible
30 Mar ? 21:56:07 10° NW 21:59:33 60° SW 21:59:33 60° SW visible
31 Mar ? 21:22:59 10° NW 21:26:30 80° SW 21:27:39 39° SE visible
01 Apr ? 20:49:49 10° NW 20:53:20 79° NE 20:55:45 19° SE visible
01 Apr ? 22:27:40 10° W 22:29:37 15° WSW 22:29:37 15° WSW visible
02 Apr ? 20:16:37 10° NW 20:20:06 61° NE 20:23:34 10° ESE visible
02 Apr ? 21:54:03 10° WNW 21:56:41 20° SW 21:57:44 18° SSW visible
03 Apr ? 21:20:32 10° WNW 21:23:30 26° SW 21:25:51 14° S visible
04 Apr ? 20:47:02 10° WNW 20:50:16 35° SW 20:53:28 10° SSE visible
